Change the Weather History Date:

Friday, July 5, 2013

  Actual Average Record
Temperature  
Mean Temperature 58 °F -  
Max Temperature 64 °F 65 °F 80 °F (1972)
Min Temperature 53 °F 47 °F 32 °F (1973)
Degree Days  
Heating Degree Days 6    
Growing Degree Days 8 (Base 50)    
Moisture  
Dew Point 47 °F    
Average Humidity 67    
Maximum Humidity 77    
Minimum Humidity 55    
Precipitation  
Precipitation 0.00 in - - ()
Sea Level Pressure  
Sea Level Pressure 30.22 in    
Wind  
Wind Speed 5 mph (West)    
Max Wind Speed 9 mph    
Max Gust Speed -    
Visibility 10 miles    
Events      
Averages and records for this station are not official NWS values.
T = Trace of Precipitation, MM = Missing Value Source: NWS Daily Summary

Daily Weather History Graph

Daily Weather History Graph

Search for Another Location

Airport or City:

Trip Planner

Search our weather history database for the weather conditions in past years. The results will help you decide how hot, cold, wet, or windy it might be!

Date:

Astronomy

Jul. 05, 2013 Rise Set
Actual Time 4:08 AM AKDT 9:39 PM AKDT
Civil Twilight 3:06 AM AKDT 10:40 PM AKDT
Nautical Twilight 1:26 AM AKDT 12:21 AM AKDT
Astronomical Twilight Sun does not rise Sun does not rise
Moon 2:27 AM AKDT (7/5) 7:26 PM AKDT (7/5)
Length of Visible Light 19h 34m
Length of Day
17h 30m
Waning Crescent, 5% of the Moon is Illuminated
Jul 5
Waning Crescent
Jul 7
New
Jul 15
First Quarter
Jul 22
Full
Jul 29
Last Quarter

Hourly Weather History & Observations

Time (AKDT) Temp. Dew Point Humidity Pressure Visibility Wind Dir Wind Speed Gust Speed Precip Events Conditions
12:16 AM 53.6 °F 46.4 °F 77% 30.24 in 10.0 mi Calm Calm - N/A   Mostly Cloudy
12:36 AM 53.6 °F 46.4 °F 77% 30.24 in 10.0 mi SW 6.9 mph - N/A   Overcast
12:56 AM 55.4 °F 46.4 °F 72% 30.24 in 10.0 mi WSW 6.9 mph - N/A   Overcast
1:16 AM 55.4 °F 46.4 °F 72% 30.24 in 10.0 mi WSW 8.1 mph - N/A   Overcast
1:36 AM 55.4 °F 46.4 °F 72% 30.24 in 10.0 mi West 6.9 mph - N/A   Overcast
1:56 AM 53.6 °F 44.6 °F 72% 30.24 in 10.0 mi WSW 4.6 mph - N/A   Partly Cloudy
2:16 AM 53.6 °F 46.4 °F 77% 30.25 in 10.0 mi Calm Calm - N/A   Scattered Clouds
2:36 AM 53.6 °F 46.4 °F 77% 30.25 in 10.0 mi WNW 3.5 mph - N/A   Mostly Cloudy
2:56 AM 53.6 °F 46.4 °F 77% 30.24 in 10.0 mi SSW 3.5 mph - N/A   Scattered Clouds
3:16 AM 53.6 °F 46.4 °F 77% 30.24 in 10.0 mi SW 4.6 mph - N/A   Overcast
3:36 AM 53.6 °F 46.4 °F 77% 30.24 in 10.0 mi WSW 5.8 mph - N/A   Overcast
3:56 AM 53.6 °F 46.4 °F 77% 30.24 in 10.0 mi WSW 8.1 mph - N/A   Overcast
4:16 AM 53.6 °F 46.4 °F 77% 30.24 in 10.0 mi WSW 5.8 mph - N/A   Overcast
4:36 AM 53.6 °F 46.4 °F 77% 30.24 in 10.0 mi WSW 5.8 mph - N/A   Overcast
4:56 AM 53.6 °F 46.4 °F 77% 30.24 in 10.0 mi WSW 5.8 mph - N/A   Overcast
5:16 AM 53.6 °F 46.4 °F 77% 30.24 in 10.0 mi WSW 5.8 mph - N/A   Overcast
5:36 AM 53.6 °F 46.4 °F 77% 30.24 in 10.0 mi West 5.8 mph - N/A   Overcast
5:56 AM 53.6 °F 46.4 °F 77% 30.24 in 10.0 mi West 4.6 mph - N/A   Overcast
6:16 AM 53.6 °F 46.4 °F 77% 30.24 in 10.0 mi West 5.8 mph - N/A   Overcast
6:36 AM 53.6 °F 46.4 °F 77% 30.24 in 10.0 mi West 4.6 mph - N/A   Overcast
6:56 AM 55.4 °F 46.4 °F 72% 30.24 in 10.0 mi SW 5.8 mph - N/A   Overcast
7:16 AM 55.4 °F 46.4 °F 72% 30.24 in 10.0 mi West 8.1 mph - N/A   Overcast
7:36 AM 55.4 °F 46.4 °F 72% 30.24 in 10.0 mi WSW 6.9 mph - N/A   Overcast
7:56 AM 55.4 °F 46.4 °F 72% 30.24 in 10.0 mi West 8.1 mph - N/A   Overcast
8:16 AM 55.4 °F 46.4 °F 72% 30.24 in 10.0 mi WSW 8.1 mph - N/A   Mostly Cloudy
8:36 AM 55.4 °F 46.4 °F 72% 30.25 in 10.0 mi West 5.8 mph - N/A   Mostly Cloudy
8:56 AM 55.4 °F 46.4 °F 72% 30.25 in 10.0 mi West 4.6 mph - N/A   Mostly Cloudy
9:16 AM 55.4 °F 46.4 °F 72% 30.25 in 10.0 mi WSW 4.6 mph - N/A   Mostly Cloudy
9:36 AM 57.2 °F 46.4 °F 67% 30.24 in 10.0 mi WSW 3.5 mph - N/A   Mostly Cloudy
9:56 AM 57.2 °F 46.4 °F 67% 30.25 in 10.0 mi WSW 6.9 mph - N/A   Mostly Cloudy
10:16 AM 57.2 °F 46.4 °F 67% 30.25 in 10.0 mi WSW 8.1 mph - N/A   Partly Cloudy
10:36 AM 59.0 °F 46.4 °F 63% 30.24 in 10.0 mi WSW 4.6 mph - N/A   Partly Cloudy
10:56 AM 60.8 °F 46.4 °F 59% 30.24 in 10.0 mi NW 5.8 mph - N/A   Mostly Cloudy
11:16 AM 59.0 °F 48.2 °F 67% 30.24 in 10.0 mi NNW 5.8 mph - N/A   Mostly Cloudy
11:36 AM 60.8 °F 48.2 °F 63% 30.24 in 10.0 mi NNW 6.9 mph - N/A   Mostly Cloudy
11:56 AM 60.8 °F 48.2 °F 63% 30.23 in 10.0 mi NNW 4.6 mph - N/A   Mostly Cloudy
12:16 PM 60.8 °F 46.4 °F 59% 30.23 in 10.0 mi Calm Calm - N/A   Mostly Cloudy
12:36 PM 60.8 °F 46.4 °F 59% 30.23 in 10.0 mi West 6.9 mph - N/A   Mostly Cloudy
12:56 PM 62.6 °F 46.4 °F 55% 30.23 in 10.0 mi WSW 5.8 mph - N/A   Mostly Cloudy
1:16 PM 62.6 °F 46.4 °F 55% 30.23 in 10.0 mi West 8.1 mph - N/A   Mostly Cloudy
1:36 PM 62.6 °F 48.2 °F 59% 30.23 in 10.0 mi WNW 9.2 mph - N/A   Mostly Cloudy
1:56 PM 60.8 °F 48.2 °F 63% 30.23 in 10.0 mi West 9.2 mph - N/A   Overcast
2:16 PM 60.8 °F 46.4 °F 59% 30.23 in 10.0 mi West 6.9 mph - N/A   Overcast
2:36 PM 60.8 °F 48.2 °F 63% 30.23 in 10.0 mi West 8.1 mph - N/A   Overcast
2:56 PM 60.8 °F 48.2 °F 63% 30.23 in 10.0 mi NNW 4.6 mph - N/A   Overcast
3:16 PM 60.8 °F 48.2 °F 63% 30.23 in 10.0 mi West 3.5 mph - N/A   Overcast
3:36 PM 60.8 °F 50.0 °F 68% 30.22 in 10.0 mi North 6.9 mph - N/A   Overcast
3:56 PM 62.6 °F 48.2 °F 59% 30.21 in 10.0 mi NNW 5.8 mph - N/A   Scattered Clouds
4:16 PM 62.6 °F 48.2 °F 59% 30.21 in 10.0 mi NNW 4.6 mph - N/A   Scattered Clouds
4:36 PM 64.4 °F 48.2 °F 56% 30.20 in 10.0 mi West 9.2 mph - N/A   Scattered Clouds
4:56 PM 64.4 °F 48.2 °F 56% 30.20 in 10.0 mi West 9.2 mph - N/A   Partly Cloudy
5:16 PM 62.6 °F 48.2 °F 59% 30.19 in 10.0 mi WNW 9.2 mph - N/A   Clear
5:36 PM 62.6 °F 48.2 °F 59% 30.20 in 10.0 mi NW 6.9 mph - N/A   Partly Cloudy
5:56 PM 62.6 °F 48.2 °F 59% 30.20 in 10.0 mi NW 4.6 mph - N/A   Overcast
6:16 PM 62.6 °F 48.2 °F 59% 30.19 in 10.0 mi NNW 3.5 mph - N/A   Overcast
6:36 PM 62.6 °F 48.2 °F 59% 30.19 in 10.0 mi NW 6.9 mph - N/A   Overcast
6:56 PM 62.6 °F 48.2 °F 59% 30.19 in 10.0 mi NW 6.9 mph - N/A   Mostly Cloudy
7:16 PM 62.6 °F 48.2 °F 59% 30.19 in 10.0 mi West 6.9 mph - N/A   Mostly Cloudy
7:36 PM 62.6 °F 48.2 °F 59% 30.19 in 10.0 mi WSW 4.6 mph - N/A   Mostly Cloudy
7:56 PM 60.8 °F 48.2 °F 63% 30.19 in 10.0 mi SW 5.8 mph - N/A   Mostly Cloudy
8:16 PM 60.8 °F 48.2 °F 63% 30.19 in 10.0 mi West 6.9 mph - N/A   Mostly Cloudy
8:36 PM 60.8 °F 46.4 °F 59% 30.19 in 10.0 mi West 4.6 mph - N/A   Mostly Cloudy
8:56 PM 60.8 °F 46.4 °F 59% 30.19 in 10.0 mi West 5.8 mph - N/A   Overcast
9:16 PM 60.8 °F 46.4 °F 59% 30.19 in 10.0 mi West 5.8 mph - N/A   Overcast
9:36 PM 59.0 °F 46.4 °F 63% 30.19 in 10.0 mi WSW 3.5 mph - N/A   Overcast
9:56 PM 59.0 °F 46.4 °F 63% 30.19 in 10.0 mi WNW 4.6 mph - N/A   Overcast
10:16 PM 57.2 °F 46.4 °F 67% 30.19 in 10.0 mi Calm Calm - N/A   Overcast
10:36 PM 57.2 °F 46.4 °F 67% 30.19 in 10.0 mi Calm Calm - N/A   Overcast
10:56 PM 57.2 °F 46.4 °F 67% 30.19 in 10.0 mi West 4.6 mph - N/A   Overcast
11:16 PM 55.4 °F 46.4 °F 72% 30.19 in 10.0 mi Calm Calm - N/A   Scattered Clouds
11:36 PM 55.4 °F 46.4 °F 72% 30.20 in 10.0 mi SW 4.6 mph - N/A   Mostly Cloudy
11:56 PM 57.2 °F 46.4 °F 67% 30.19 in 10.0 mi West 5.8 mph - N/A   Overcast